Jasper S — V2CQ4 — position and weather

sailwx.info

Track history (hours):
 
Tides and Currents Weather Stations Pressure Air Temp Water Temp Dewpoint Dewpoint Depression Visibility Wind Speed Wind Dir Waves Ship Positions

Jasper S

Last reported at 2014-Oct-21 20:20 UTC. Time now 2014-Oct-22 21:51 UTC.
Position N 35°43' W 000°38'.

Length 148 m; draft 8.7 m.

Type: Ship (hazmat cat A). MMSI: 305079000.

Date/timePositionNaut miles runAvg speedWind from/ knotsBaromVisibWave heightAir tempDewpointWater temp
2014-Oct-21 20:20N 35°43' W 000°38'0 0.0
2014-Oct-21 19:32N 35°43' W 000°38'0 0.0
2014-Oct-21 14:15N 35°43' W 000°38'0 0.0
2014-Oct-21 13:26N 35°43' W 000°38'0 0.0
2014-Oct-21 12:26N 35°43' W 000°38'0 0.0
2014-Oct-20 23:32N 35°43' W 000°38'0 0.0
2014-Oct-20 22:32N 35°43' W 000°38'0 0.0
2014-Oct-20 18:14N 35°43' W 000°38'0 0.0
2014-Oct-20 17:08N 35°43' W 000°38'0 0.0
2014-Oct-20 16:32N 35°43' W 000°38'0 0.0
2014-Oct-19 20:32N 35°43' W 000°38'0 0.0
2014-Oct-19 19:32N 35°43' W 000°38'0 0.0
2014-Oct-19 16:20N 35°43' W 000°38'2 0.1
2014-Oct-18 08:22N 35°45' W 000°37'4 5.4
2014-Oct-18 07:33N 35°49' W 000°36'4911.4
2014-Oct-18 03:14N 36°35' W 000°13'811.7
2014-Oct-18 02:33N 36°42' W 000°10'3411.5
2014-Oct-17 23:33N 37°14' E 000°07'1211.6
2014-Oct-17 22:33N 37°25' E 000°12'1111.4
2014-Oct-17 21:33N 37°35' E 000°17'1211.7
2014-Oct-17 20:33N 37°46' E 000°23'1312.7
2014-Oct-17 19:33N 37°58' E 000°29'1313.1
2014-Oct-17 18:33N 38°10' E 000°35'1413.6
2014-Oct-17 17:33N 38°23' E 000°41'1414.3
2014-Oct-17 16:33N 38°36' E 000°48'1514.7
2014-Oct-17 15:33N 38°50' E 000°55'1414.4
2014-Oct-17 14:33N 39°03' E 001°02'1414.2
2014-Oct-17 13:33N 39°16' E 001°08'1413.9
2014-Oct-17 12:32N 39°30' E 001°15'1413.9
2014-Oct-17 11:33N 39°42' E 001°22'1414.3
2014-Oct-17 10:33N 39°55' E 001°28'1414.4
2014-Oct-17 09:33N 40°09' E 001°35'1414.4
2014-Oct-17 08:33N 40°22' E 001°42'1514.6
2014-Oct-17 07:33N 40°36' E 001°49'1514.8
2014-Oct-17 06:33N 40°50' E 001°55'1514.8
2014-Oct-17 05:33N 41°03' E 002°04'1514.7
2014-Oct-17 04:33N 41°17' E 002°10'2 1.8
2014-Oct-17 03:29N 41°19' E 002°09'0 0.0
2014-Oct-17 02:32N 41°19' E 002°09'0 0.0
2014-Oct-17 01:32N 41°19' E 002°09'0 0.0
2014-Oct-17 00:32N 41°19' E 002°09'0 0.0
2014-Oct-16 23:26N 41°19' E 002°09'0 0.0
2014-Oct-16 22:26N 41°19' E 002°09'0 0.0
2014-Oct-16 21:26N 41°19' E 002°09'0 0.0
2014-Oct-16 20:14N 41°19' E 002°09'0 0.0
2014-Oct-16 19:26N 41°19' E 002°09'0 0.0
2014-Oct-16 18:32N 41°19' E 002°09'0 0.0
2014-Oct-16 17:08N 41°19' E 002°09'0 0.0
2014-Oct-16 16:32N 41°19' E 002°09'7 6.7
2014-Oct-16 15:33N 41°13' E 002°14'1 1.1
2014-Oct-16 14:29N 41°14' E 002°12'4 4.6
2014-Oct-16 13:33N 41°13' E 002°07'1413.6
2014-Oct-16 12:33N 41°04' E 001°54'1414.2
2014-Oct-16 11:33N 40°54' E 001°41'1414.4
2014-Oct-16 10:33N 40°43' E 001°28'1514.9
2014-Oct-16 09:34N 40°33' E 001°14'1413.7
2014-Oct-16 08:33N 40°23' E 001°01'1514.4
2014-Oct-16 07:33N 40°13' E 000°48'1414.2
2014-Oct-16 06:33N 40°02' E 000°35'1613.6
2014-Oct-16 05:23N 39°51' E 000°20'2513.7
2014-Oct-16 03:33N 39°34' W 000°03'1413.8
2014-Oct-16 02:33N 39°25' W 000°18'2 1.6
2014-Oct-16 01:33N 39°26' W 000°19'0 0.0
2014-Oct-16 00:27N 39°26' W 000°19'0 0.0
2014-Oct-15 23:33N 39°26' W 000°19'0 0.0
2014-Oct-15 22:33N 39°26' W 000°19'0 0.0
2014-Oct-15 21:30N 39°26' W 000°19'0 0.0
2014-Oct-15 20:33N 39°26' W 000°19'0 0.0
2014-Oct-15 19:33N 39°26' W 000°19'0 0.0
2014-Oct-15 18:33N 39°26' W 000°19'0 0.0
2014-Oct-15 17:33N 39°26' W 000°19'0 0.5
2014-Oct-15 16:33N 39°26' W 000°19'0 0.0
2014-Oct-15 15:33N 39°26' W 000°19'0 0.0
2014-Oct-15 14:30N 39°26' W 000°19'0 0.0
2014-Oct-15 13:33N 39°26' W 000°19'0 0.0
2014-Oct-15 12:27N 39°26' W 000°19'0 0.0
2014-Oct-15 11:21N 39°26' W 000°19'0 0.0
2014-Oct-15 10:33N 39°26' W 000°19'0 0.0
2014-Oct-15 09:27N 39°26' W 000°19'0 0.0
2014-Oct-15 08:30N 39°26' W 000°19'0 0.0
2014-Oct-15 07:33N 39°26' W 000°19'0 0.0
2014-Oct-15 06:33N 39°26' W 000°19'0 0.0
2014-Oct-15 05:33N 39°26' W 000°19'0 0.0
2014-Oct-15 04:33N 39°26' W 000°19'0 0.0
2014-Oct-15 03:33N 39°26' W 000°19'0 0.0
2014-Oct-15 02:27N 39°26' W 000°19'0 0.0
2014-Oct-15 01:33N 39°26' W 000°19'0 0.0
2014-Oct-15 00:33N 39°26' W 000°19'0 0.0
2014-Oct-14 23:33N 39°26' W 000°19'0 0.0
2014-Oct-14 22:21N 39°26' W 000°19'0 0.0
2014-Oct-14 21:15N 39°26' W 000°19'0 0.0
2014-Oct-14 20:33N 39°26' W 000°19'0 0.0
2014-Oct-14 19:33N 39°26' W 000°19'2 2.5
2014-Oct-14 18:34N 39°25' W 000°16'3 2.5
2014-Oct-14 17:33N 39°24' W 000°14'  
Track history (hours):
 
Tides and Currents Weather Stations Pressure Air Temp Water Temp Dewpoint Dewpoint Depression Visibility Wind Speed Wind Dir Waves Ship Positions

Jasper S

Last reported at 2014-Oct-21 20:20 UTC. Time now 2014-Oct-22 21:51 UTC.
Position N 35°43' W 000°38'.

Length 148 m; draft 8.7 m.

Type: Ship (hazmat cat A). MMSI: 305079000.

Date/timePositionNaut miles runAvg speedWind from/ knotsBaromVisibWave heightAir tempDewpointWater temp
2014-Oct-21 20:20N 35°43' W 000°38'0 0.0
2014-Oct-21 19:32N 35°43' W 000°38'0 0.0
2014-Oct-21 14:15N 35°43' W 000°38'0 0.0
2014-Oct-21 13:26N 35°43' W 000°38'0 0.0
2014-Oct-21 12:26N 35°43' W 000°38'0 0.0
2014-Oct-20 23:32N 35°43' W 000°38'0 0.0
2014-Oct-20 22:32N 35°43' W 000°38'0 0.0
2014-Oct-20 18:14N 35°43' W 000°38'0 0.0
2014-Oct-20 17:08N 35°43' W 000°38'0 0.0
2014-Oct-20 16:32N 35°43' W 000°38'0 0.0
2014-Oct-19 20:32N 35°43' W 000°38'0 0.0
2014-Oct-19 19:32N 35°43' W 000°38'0 0.0
2014-Oct-19 16:20N 35°43' W 000°38'2 0.1
2014-Oct-18 08:22N 35°45' W 000°37'4 5.4
2014-Oct-18 07:33N 35°49' W 000°36'4911.4
2014-Oct-18 03:14N 36°35' W 000°13'811.7
2014-Oct-18 02:33N 36°42' W 000°10'3411.5
2014-Oct-17 23:33N 37°14' E 000°07'1211.6
2014-Oct-17 22:33N 37°25' E 000°12'1111.4
2014-Oct-17 21:33N 37°35' E 000°17'1211.7
2014-Oct-17 20:33N 37°46' E 000°23'1312.7
2014-Oct-17 19:33N 37°58' E 000°29'1313.1
2014-Oct-17 18:33N 38°10' E 000°35'1413.6
2014-Oct-17 17:33N 38°23' E 000°41'1414.3
2014-Oct-17 16:33N 38°36' E 000°48'1514.7
2014-Oct-17 15:33N 38°50' E 000°55'1414.4
2014-Oct-17 14:33N 39°03' E 001°02'1414.2
2014-Oct-17 13:33N 39°16' E 001°08'1413.9
2014-Oct-17 12:32N 39°30' E 001°15'1413.9
2014-Oct-17 11:33N 39°42' E 001°22'1414.3
2014-Oct-17 10:33N 39°55' E 001°28'1414.4
2014-Oct-17 09:33N 40°09' E 001°35'1414.4
2014-Oct-17 08:33N 40°22' E 001°42'1514.6
2014-Oct-17 07:33N 40°36' E 001°49'1514.8
2014-Oct-17 06:33N 40°50' E 001°55'1514.8
2014-Oct-17 05:33N 41°03' E 002°04'1514.7
2014-Oct-17 04:33N 41°17' E 002°10'2 1.8
2014-Oct-17 03:29N 41°19' E 002°09'0 0.0
2014-Oct-17 02:32N 41°19' E 002°09'0 0.0
2014-Oct-17 01:32N 41°19' E 002°09'0 0.0
2014-Oct-17 00:32N 41°19' E 002°09'0 0.0
2014-Oct-16 23:26N 41°19' E 002°09'0 0.0
2014-Oct-16 22:26N 41°19' E 002°09'0 0.0
2014-Oct-16 21:26N 41°19' E 002°09'0 0.0
2014-Oct-16 20:14N 41°19' E 002°09'0 0.0
2014-Oct-16 19:26N 41°19' E 002°09'0 0.0
2014-Oct-16 18:32N 41°19' E 002°09'0 0.0
2014-Oct-16 17:08N 41°19' E 002°09'0 0.0
2014-Oct-16 16:32N 41°19' E 002°09'7 6.7
2014-Oct-16 15:33N 41°13' E 002°14'1 1.1
2014-Oct-16 14:29N 41°14' E 002°12'4 4.6
2014-Oct-16 13:33N 41°13' E 002°07'1413.6
2014-Oct-16 12:33N 41°04' E 001°54'1414.2
2014-Oct-16 11:33N 40°54' E 001°41'1414.4
2014-Oct-16 10:33N 40°43' E 001°28'1514.9
2014-Oct-16 09:34N 40°33' E 001°14'1413.7
2014-Oct-16 08:33N 40°23' E 001°01'1514.4
2014-Oct-16 07:33N 40°13' E 000°48'1414.2
2014-Oct-16 06:33N 40°02' E 000°35'1613.6
2014-Oct-16 05:23N 39°51' E 000°20'2513.7
2014-Oct-16 03:33N 39°34' W 000°03'1413.8
2014-Oct-16 02:33N 39°25' W 000°18'2 1.6
2014-Oct-16 01:33N 39°26' W 000°19'0 0.0
2014-Oct-16 00:27N 39°26' W 000°19'0 0.0
2014-Oct-15 23:33N 39°26' W 000°19'0 0.0
2014-Oct-15 22:33N 39°26' W 000°19'0 0.0
2014-Oct-15 21:30N 39°26' W 000°19'0 0.0
2014-Oct-15 20:33N 39°26' W 000°19'0 0.0
2014-Oct-15 19:33N 39°26' W 000°19'0 0.0
2014-Oct-15 18:33N 39°26' W 000°19'0 0.0
2014-Oct-15 17:33N 39°26' W 000°19'0 0.5
2014-Oct-15 16:33N 39°26' W 000°19'0 0.0
2014-Oct-15 15:33N 39°26' W 000°19'0 0.0
2014-Oct-15 14:30N 39°26' W 000°19'0 0.0
2014-Oct-15 13:33N 39°26' W 000°19'0 0.0
2014-Oct-15 12:27N 39°26' W 000°19'0 0.0
2014-Oct-15 11:21N 39°26' W 000°19'0 0.0
2014-Oct-15 10:33N 39°26' W 000°19'0 0.0
2014-Oct-15 09:27N 39°26' W 000°19'0 0.0
2014-Oct-15 08:30N 39°26' W 000°19'0 0.0
2014-Oct-15 07:33N 39°26' W 000°19'0 0.0
2014-Oct-15 06:33N 39°26' W 000°19'0 0.0
2014-Oct-15 05:33N 39°26' W 000°19'0 0.0
2014-Oct-15 04:33N 39°26' W 000°19'0 0.0
2014-Oct-15 03:33N 39°26' W 000°19'0 0.0
2014-Oct-15 02:27N 39°26' W 000°19'0 0.0
2014-Oct-15 01:33N 39°26' W 000°19'0 0.0
2014-Oct-15 00:33N 39°26' W 000°19'0 0.0
2014-Oct-14 23:33N 39°26' W 000°19'0 0.0
2014-Oct-14 22:21N 39°26' W 000°19'0 0.0
2014-Oct-14 21:15N 39°26' W 000°19'0 0.0
2014-Oct-14 20:33N 39°26' W 000°19'0 0.0
2014-Oct-14 19:33N 39°26' W 000°19'2 2.5
2014-Oct-14 18:34N 39°25' W 000°16'3 2.5
2014-Oct-14 17:33N 39°24' W 000°14'  

Dump ship's entire track history